Regional Weather Roundup
Issued by NWS Charleston, WV

Home | Current Version | Previous Version | Text Only | Print | Product List | Glossary On
Versions: 1 2 3 4 5 6 7 8 9 10 11 12 13 14 15 16 17 18 19 20 21 22 23 24 25 26 27
000
ASUS41 KRLX 201910
RWRRLX
West Virginia Regional Weather Roundup
National Weather Service Charleston WV
300 PM EDT SUN AUG 20 2017

Note: "fair" indicates few or no clouds below 12,000 feet with no
significant weather and/or obstructions to visibility.

WVZ003-202000-
Northern Panhandle of West Virginia

CITY           SKY/WX    TMP DP  RH WIND       PRES   REMARKS
WHEELING       SUNNY     81  58  45 CALM      30.15F
$$

WVZ009-202000-
Northwest West Virginia

CITY           SKY/WX    TMP DP  RH WIND       PRES   REMARKS
PARKERSBURG    SUNNY     87  68  52 CALM      30.14F
$$

WVZ006-202000-
Western West Virginia

CITY           SKY/WX    TMP DP  RH WIND       PRES   REMARKS
HUNTINGTON     MOSUNNY   88  67  49 S7        30.10F
$$

WVZ015-202000-
West Central West Virginia

CITY           SKY/WX    TMP DP  RH WIND       PRES   REMARKS
CHARLESTON     MOSUNNY   88  64  44 VRB5      30.12F
$$

WVZ022-031-202000-
North Central West Virginia

CITY           SKY/WX    TMP DP  RH WIND       PRES   REMARKS
CLARKSBURG     MOSUNNY   84  62  47 VRB5      30.14F
MORGANTOWN     MOSUNNY   84  61  45 CALM      30.16F
$$

WVZ025-035-042-045-202000-
Southern West Virginia

CITY           SKY/WX    TMP DP  RH WIND       PRES   REMARKS
BECKLEY        SUNNY     85  59  41 VRB3      30.20F
LOGAN            N/A     86  68  54 CALM      30.16F
BLUEFIELD      PTSUNNY   79  61  53 CALM      30.23F
LEWISBURG      SUNNY     83  59  43 SW6       30.20F
$$

WVZ047-202000-
Northern Mountains of West Virginia

CITY           SKY/WX    TMP DP  RH WIND       PRES   REMARKS
ELKINS         MOSUNNY   84  61  45 W3        30.19F
$$

WVZ052-202000-
Eastern Panhandle of West Virginia

CITY           SKY/WX    TMP DP  RH WIND       PRES   REMARKS
MARTINSBURG    SUNNY     82  60  47 W5        30.13F
PETERSBURG     SUNNY     88  71  58 N3        30.13F
$$




USA.gov is the U.S. government's official web portal to all federal, state and local government web resources and services.